sat.trackr.live / text

‹ back to catalog

STARLINK-30776

NORAD 58136 · 2023-162U

PAYLOAD ACTIVE UNKNOWN

§ Identity

Operator
Country
US
Launch date
2023-10-22
Launch site
AFETR
Launch vehicle
Mass (kg)
RCS (m²)

Purposes: comms

External: N2YO · Heavens-Above · Gunter

§ Orbital elements

Epoch: 2026-05-25T03:12:11.744064Z

Period
93.67 min
Inclination
42.9966°
Eccentricity
0.0011680
Mean motion
15.37393831 rev/d
Perigee alt
445.8 km
Apogee alt
461.8 km
Semi-major
6,832.0 km
B*
1.9480e-3
RAAN
57.6498°
Arg perigee
214.1847°
Mean anomaly
145.8257°
Rev number
14,403

§ Raw data

STARLINK-307761 58136U 23162U   26145.13346926  .00073575  00000+0  19480-2 0  99992 58136  42.9966  57.6498 0011680 214.1847 145.8257 15.37393831144030

JSON: /api/v1/satellites/58136 · /tle

For live sub-satellite position, see the globe view (requires WebGL).

§ Visibility from observer

Set your observer location to see the next 7 days of passes ≥ 10°. The values pass through the URL so the page stays shareable.

No JS? Fill the form by hand. The geolocation button needs JavaScript.